Driggs, ID

12:54 AM MDT on March 30, 2017 (GMT -0600)
Driggs

Weather History for KDIJ - January, 2014

Change the Weather History Date:

Sunday, January 5, 2014

  Actual Average (KJAC) Record (KJAC)
Temperature  
Mean Temperature -1 °F -  
Max Temperature 11 °F 22 °F 44 °F (1969)
Min Temperature -13 °F 0 °F -34 °F (1971)
Degree Days  
Heating Degree Days 66    
Moisture  
Dew Point -4 °F    
Average Humidity 74    
Maximum Humidity 80    
Minimum Humidity 64    
Precipitation  
Precipitation 0.00 in - - ()
Sea Level Pressure  
Sea Level Pressure 30.48 in    
Wind  
Wind Speed 3 mph (East)    
Max Wind Speed 8 mph    
Max Gust Speed -    
Visibility 10 miles    
Events      
Averages and records for this station are not official NWS values.
T = Trace of Precipitation, MM = Missing Value Source: NWS Daily Summary

Daily Weather History Graph

Daily Weather History Graph

Search for Another Location

Airport or City:

Trip Planner

Search our weather history database for the weather conditions in past years. The results will help you decide how hot, cold, wet, or windy it might be!

Date:

Astronomy

Jan. 05, 2014 Rise Set
Actual Time 7:58 AM MST 5:01 PM MST
Civil Twilight 7:25 AM MST 5:34 PM MST
Nautical Twilight 6:49 AM MST 6:10 PM MST
Astronomical Twilight 6:14 AM MST 6:45 PM MST
Moon 10:31 AM MST (1/5) 10:45 PM MST (1/5)
Length of Visible Light 10h 08m
Length of Day
9h 03m
Waxing Crescent, 25% of the Moon is Illuminated
Jan 5
Waxing Crescent
Jan 7
First Quarter
Jan 15
Full
Jan 23
Last Quarter
Jan 30
New

Hourly Weather History & Observations

Time (MST) Temp. Windchill Dew Point Humidity Pressure Visibility Wind Dir Wind Speed Gust Speed Precip Events Conditions
12:56 AM 7.2 °F 0.3 °F -0.9 °F 69% 30.25 in 10.0 mi NE 3.5 mph - N/A   Overcast
1:56 AM 8.1 °F - 0.1 °F 70% 30.27 in 10.0 mi Calm Calm - N/A   Overcast
2:56 AM 7.2 °F -1.5 °F 1.0 °F 76% 30.28 in 10.0 mi SE 4.6 mph - N/A   Overcast
3:56 AM 8.1 °F -0.5 °F 2.1 °F 77% 30.29 in 10.0 mi ESE 4.6 mph - N/A   Overcast
4:56 AM 10.0 °F - 0.1 °F 64% 30.30 in 10.0 mi Calm Calm - N/A   Overcast
5:56 AM 9.1 °F 2.6 °F 1.0 °F 70% 30.32 in 10.0 mi ESE 3.5 mph - N/A   Overcast
6:56 AM 10.0 °F 3.6 °F 1.0 °F 67% 30.33 in 10.0 mi East 3.5 mph - N/A   Overcast
7:56 AM 11.1 °F 4.9 °F 1.0 °F 64% 30.35 in 10.0 mi NNE 3.5 mph - N/A   Overcast
8:56 AM 7.2 °F -5.4 °F -0.9 °F 69% 30.43 in 10.0 mi North 8.1 mph - N/A   Mostly Cloudy
9:56 AM 3.0 °F -9.3 °F -2.9 °F 76% 30.49 in 10.0 mi NNE 6.9 mph - N/A   Scattered Clouds
10:56 AM 7.2 °F -3.0 °F 1.0 °F 76% 30.50 in 10.0 mi North 5.8 mph - N/A   Overcast
11:56 AM 8.1 °F -2.0 °F 2.1 °F 77% 30.53 in 10.0 mi NNE 5.8 mph - N/A   Mostly Cloudy
12:40 PM 6.8 °F - 1.4 °F 79% 30.31 in 10.0 mi Calm Calm - N/A   Overcast
12:56 PM 7.2 °F - 1.0 °F 76% 30.53 in 10.0 mi Calm Calm - N/A   Mostly Cloudy
1:08 PM 6.8 °F - -0.4 °F 72% 30.31 in 10.0 mi Calm Calm - N/A   Mostly Cloudy
1:56 PM 8.1 °F -0.5 °F 3.0 °F 80% 30.53 in 10.0 mi SW 4.6 mph - N/A   Clear
2:56 PM 9.1 °F 2.6 °F 1.0 °F 70% 30.54 in 10.0 mi East 3.5 mph - N/A   Clear
3:56 PM 7.2 °F - -1.8 °F 67% 30.56 in 10.0 mi Calm Calm - N/A   Clear
4:56 PM 2.1 °F - -4.0 °F 76% 30.58 in 10.0 mi Calm Calm - N/A   Clear
5:56 PM -9.9 °F -21.5 °F -15.0 °F 78% 30.67 in 10.0 mi ESE 4.6 mph - N/A   Clear
6:56 PM -13.9 °F -23.7 °F -19.8 °F 75% 30.68 in 10.0 mi ENE 3.5 mph - N/A   Clear
7:56 PM -6.0 °F -16.9 °F -10.8 °F 79% 30.63 in 10.0 mi SE 4.6 mph - N/A   Clear
8:56 PM -9.9 °F -21.5 °F -15.9 °F 75% 30.68 in 8.0 mi East 4.6 mph - N/A   Clear
9:56 PM -10.8 °F -20.2 °F -15.9 °F 78% 30.71 in 10.0 mi ESE 3.5 mph - N/A   Clear
10:56 PM -8.0 °F -19.2 °F -13.0 °F 79% 30.67 in 5.0 mi East 4.6 mph - N/A   Haze
11:56 PM -4.9 °F -17.4 °F -9.9 °F 79% 30.65 in 10.0 mi ESE 5.8 mph - N/A   Clear